[Iaude] MPEC R151: 2016 RW33 [a=2.72,e=0.58,i=25.4,H=19.0]

mpec at mpc.eps.harvard.edu mpec at mpc.eps.harvard.edu
Tue Sep 13 22:29:16 EDT 2016


M.P.E.C. 2016-R151                               Issued 2016 Sept. 14, 02:26 UT
 
     The Minor Planet Electronic Circulars contain information on unusual
         minor planets and routine data on comets.  They are published
    on behalf of Division F of the International Astronomical Union by the
          Minor Planet Center, Smithsonian Astrophysical Observatory,
                          Cambridge, MA 02138, U.S.A.

             Prepared using the Tamkin Foundation Computer Network

                              MPC at CFA.HARVARD.EDU
            URL http://www.minorplanetcenter.net/    ISSN 1523-6714


                                   2016 RW33
 
Observations:
     K16R33W* C2016 09 10.28212 23 44 34.96 -01 48 31.0          19.8 VqER151G96
     K16R33W  C2016 09 10.28591 23 44 34.38 -01 48 27.0          19.9 VqER151G96
     K16R33W  C2016 09 10.29078 23 44 33.67 -01 48 22.9          19.9 VqER151G96
     K16R33W  C2016 09 10.29459 23 44 33.12 -01 48 18.7          19.6 VqER151G96
     K16R33W  C2016 09 10.47523 23 44 06.80 -01 45 25.2          19.8 VqER151G96
     K16R33W  C2016 09 10.47774 23 44 06.44 -01 45 22.9          19.9 VqER151G96
     K16R33W  C2016 09 10.48009 23 44 06.13 -01 45 20.8          19.9 VqER151G96
     K16R33W  C2016 09 10.48243 23 44 05.78 -01 45 18.0          19.5 VqER151G96
     K16R33W KC2016 09 11.29082923 42 12.57 -01 32 30.8          20.3 VuER151H21
     K16R33W  C2016 09 11.29524 23 42 12.15 -01 32 25.5          19.2 VqER151G96
     K16R33W KC2016 09 11.29708023 42 11.67 -01 32 24.9          20.3 VuER151H21
     K16R33W  C2016 09 11.29910 23 42 11.63 -01 32 21.7          19.8 VqER151G96
     K16R33W KC2016 09 11.30274 23 42 11.14 -01 32 18.2          19.5 RoER151291
     K16R33W  C2016 09 11.30291 23 42 11.10 -01 32 18.0          20.0 VqER151G96
     K16R33W KC2016 09 11.30332923 42 10.76 -01 32 19.0          20.2 VuER151H21
     K16R33W KC2016 09 11.30499 23 42 10.82 -01 32 16.0          19.3 RoER151291
     K16R33W KC2016 09 11.30724 23 42 10.48 -01 32 14.0          19.3 RoER151291
     K16R33W  C2016 09 11.97064 23 40 38.21 -01 21 55.8                qER151246
     K16R33W  C2016 09 11.97117 23 40 38.16 -01 21 55.4                qER151246
     K16R33W  C2016 09 11.97211 23 40 37.92 -01 21 55.2                qER151246
     K16R33W  C2016 09 11.97392 23 40 37.79 -01 21 52.3                qER151246
     K16R33W  C2016 09 11.97439 23 40 37.67 -01 21 52.2                qER151246
     K16R33W  C2016 09 12.22249 23 40 03.82 -01 17 59.4          20.2 VoER151691
     K16R33W  C2016 09 12.22481 23 40 03.50 -01 17 57.7          20.2 VoER151691
     K16R33W  C2016 09 12.22711 23 40 03.16 -01 17 54.7          20.2 VoER151691
     K16R33W  C2016 09 12.23162 23 40 02.54 -01 17 51.4          19.7 VqER151G96
     K16R33W  C2016 09 12.23536 23 40 02.00 -01 17 48.5          19.4 VqER151G96
     K16R33W  C2016 09 12.23934 23 40 01.47 -01 17 44.0          19.5 VqER151G96
     K16R33W  C2016 09 12.24316 23 40 00.90 -01 17 40.9          19.6 VqER151G96
     K16R33W KC2016 09 12.90029 23 38 30.84 -01 07 41.0          18.7 RtER151104
     K16R33W KC2016 09 12.90598 23 38 30.14 -01 07 37.0                tER151104
     K16R33W KC2016 09 12.91354 23 38 29.10 -01 07 28.1          18.9 RtER151104
     K16R33W  C2016 09 12.95870 23 38 22.81 -01 06 48.2                qER151246
     K16R33W  C2016 09 12.95923 23 38 22.72 -01 06 47.3                qER151246
     K16R33W  C2016 09 12.95990 23 38 22.58 -01 06 46.6                qER151246
 
Observer details:
104 San Marcello Pistoiese.  Observers P. Bacci, M. Maestripieri.  Measurers
    P. Bacci, L. Tesi, G. Fagioli.  0.60-m f/4 reflector + CCD.
246 Klet Observatory-KLENOT.  Observers M. Tichy, J. Ticha.  Measurer M. Tichy.
    1.06-m KLENOT Telescope + CCD.
291 LPL/Spacewatch II.  Observer R. S. McMillan.  1.8-m f/2.7 reflector + CCD.
691 Steward Observatory, Kitt Peak.  Observer R. S. McMillan.  0.9-m f/3
    reflector + CCD.
G96 Mt. Lemmon Survey.  Observers A. R. Gibbs, R. A. Kowalski.  Measurers
    E. J. Christensen, D. C. Fuls, A. R. Gibbs, A. D. Grauer, J. A. Johnson,
    R. A. Kowalski, S. M. Larson, G. J. Leonard, R. G. Matheny, R. L. Seaman,
    F. C. Shelly.  1.5-m reflector + 10K CCD.
H21 Astronomical Research Observatory, Westfield.  Observer R. Holmes.
    Measurers S. Foglia, L. Buzzi, T. Linder, R. Holmes.  0.61-m f/4.5
    astrograph + CCD.
 
Orbital elements:
2016 RW33                                                Earth MOID = 0.4102 AU
Epoch 2016 July 31.0 TT = JDT 2457600.5                 MPC
M  15.30492              (2000.0)            P               Q
n   0.21978884     Peri.  276.18970     -0.03180879     +0.99730708
a   2.7193532      Node   351.13846     -0.65971075     -0.07061675
e   0.5787544      Incl.   25.40226     -0.75084614     +0.01979566
P   4.48           H   19.0           G   0.15           U   8
Residuals in seconds of arc
160910 G96  0.1+  0.2-    160911 291  0.3+  0.0     160912 691  0.4-  0.9+
160910 G96  0.3-  0.1+    160911 G96  0.3+  0.2+    160912 G96  0.0   0.1+
160910 G96  0.2-  0.4-    160911 H21  0.0   0.0     160912 G96  0.2-  0.4-
160910 G96  0.1-  0.1+    160911 291  0.4+  0.1+    160912 G96  0.3+  0.4+
160910 G96  0.3-  0.1-    160911 291  0.2+  0.0     160912 G96  0.1-  0.0
160910 G96  0.3-  0.2-    160911 246  0.3+  0.1+    160912 104  1.5-  0.7-
160910 G96  0.1+  0.4-    160911 246  0.7+  0.0     160912 104  0.1-  1.9-
160910 G96  0.1-  0.1+    160911 246  0.9-  0.6-    160912 104  0.1+  0.2+
160911 H21  0.2+  0.0     160911 246  1.0+  0.6+    160912 246  0.9+  0.3-
160911 G96  0.6-  0.1-    160911 246  0.2+  0.3+    160912 246  0.6+  0.1+
160911 H21  0.2+  0.0     160912 691  0.3-  0.4+    160912 246  0.1-  0.2+
160911 G96  0.0   0.1+    160912 691  0.2-  0.0

Ephemeris:
2016 RW33                a,e,i = 2.72, 0.58, 25                  q = 1.1455
Date    TT    R. A. (2000) Decl.     Delta      r     Elong.  Phase     V
2016 08 15    00 48 14.3 -10 21 01   0.6223  1.5111   133.7    29.0    20.1
...
2016 08 30    00 12 38.7 -05 09 17   0.6446  1.6179   155.3    15.1    19.9
...
2016 09 07    23 52 30.4 -02 42 51   0.6785  1.6762   167.3     7.6    19.8
...
2016 09 13    23 38 17.2 -01 06 02   0.7154  1.7203   175.7     2.5    19.7
2016 09 14    23 36 02.6 -00 51 04   0.7225  1.7277   176.8     1.9    19.7
2016 09 15    23 33 50.6 -00 36 27   0.7299  1.7351   177.5     1.4    19.7
...
2016 09 21    23 21 38.2 +00 44 13   0.7799  1.7795   171.9     4.5    20.1
...
2016 09 29    23 08 20.8 +02 14 03   0.8609  1.8387   161.5     9.9    20.6
...
2016 10 14    22 53 08.1 +04 21 13   1.0519  1.9493   144.1    17.5    21.5

A. U. Tomatic                (C) Copyright 2016 MPC           M.P.E.C. 2016-R151




More information about the Iaude mailing list